| time (UTC) | temp F | wind direction | speed MPH | gust MPH | rain 1hr in | rain 24hr in | rain mn in | humidity % | barometer mb |
| 20260906224754 | 66 | 335 | 6.0 | 8.0 | 0.00 | 0.00 | 0.00 | 72 | 1017.0 |
| 20260906224250 | 66 | 10 | 4.0 | 7.0 | 0.00 | 0.00 | 0.00 | 72 | 1017.1 |
| 20260906223746 | 65 | 6 | 4.0 | 6.0 | 0.00 | 0.00 | 0.00 | 72 | 1017.0 |
| 20260906223242 | 65 | 321 | 6.0 | 8.0 | 0.00 | 0.00 | 0.00 | 73 | 1017.0 |
| 20260906222740 | 66 | 329 | 7.0 | 9.0 | 0.00 | 0.00 | 0.00 | 72 | 1017.1 |
| 20260906222233 | 66 | 347 | 5.0 | 6.0 | 0.00 | 0.00 | 0.00 | 72 | 1017.2 |
| 20260906221731 | 65 | 320 | 6.0 | 9.0 | 0.00 | 0.00 | 0.00 | 73 | 1017.2 |
| 20260906221226 | 66 | 329 | 7.0 | 10.0 | 0.00 | 0.00 | 0.00 | 72 | 1017.0 |
| 20260906220722 | 66 | 320 | 6.0 | 9.0 | 0.00 | 0.00 | 0.00 | 72 | 1017.0 |
| 20260906220217 | 66 | 326 | 8.0 | 10.0 | 0.00 | 0.00 | 0.00 | 73 | 1017.0 |
| 20260906215715 | 66 | 7 | 7.0 | 9.0 | 0.00 | 0.00 | 0.00 | 71 | 1016.9 |
| 20260906215214 | 65 | 323 | 5.0 | 6.0 | 0.00 | 0.00 | 0.00 | 73 | 1016.8 |
| 20260906214712 | 65 | 337 | 4.0 | 6.0 | 0.00 | 0.00 | 0.00 | 74 | 1016.8 |
| 20260906214209 | 64 | 27 | 7.0 | 9.0 | 0.00 | 0.00 | 0.00 | 74 | 1017.0 |
| 20260906213707 | 64 | 7 | 5.0 | 7.0 | 0.00 | 0.00 | 0.00 | 75 | 1017.1 |
| 20260906213202 | 64 | 8 | 5.0 | 7.0 | 0.00 | 0.00 | 0.00 | 75 | 1017.1 |
| 20260906212659 | 64 | 47 | 5.0 | 7.0 | 0.00 | 0.00 | 0.00 | 74 | 1016.8 |
| 20260906212155 | 64 | 17 | 6.0 | 8.0 | 0.00 | 0.00 | 0.00 | 75 | 1017.1 |
| 20260906211655 | 64 | 349 | 7.0 | 8.0 | 0.00 | 0.00 | 0.00 | 75 | 1017.1 |
| 20260906211150 | 64 | 353 | 8.0 | 10.0 | 0.00 | 0.00 | 0.00 | 74 | 1017.1 |
| 20260906210646 | 65 | 353 | 6.0 | 9.0 | 0.00 | 0.00 | 0.00 | 74 | 1017.1 |
| 20260906210145 | 65 | 25 | 4.0 | 6.0 | 0.00 | 0.00 | 0.00 | 72 | 1017.2 |
| 20260906205641 | 64 | 134 | 2.0 | 3.0 | 0.00 | 0.00 | 0.00 | 74 | 1017.1 |
| 20260906205137 | 64 | 330 | 2.0 | 3.0 | 0.00 | 0.00 | 0.00 | 74 | 1017.3 |
| 20260906204636 | 64 | 15 | 1.0 | 1.0 | 0.00 | 0.00 | 0.00 | 75 | 1017.1 |
| 20260906204131 | 64 | 18 | 3.0 | 4.0 | 0.00 | 0.00 | 0.00 | 75 | 1017.4 |
| 20260906203626 | 64 | 14 | 4.0 | 4.0 | 0.00 | 0.00 | 0.00 | 75 | 1017.4 |
| 20260906203125 | 64 | 43 | 2.0 | 4.0 | 0.00 | 0.00 | 0.00 | 75 | 1017.4 |
| 20260906202623 | 64 | 343 | 5.0 | 6.0 | 0.00 | 0.00 | 0.00 | 74 | 1017.4 |
| 20260906202122 | 64 | 359 | 6.0 | 9.0 | 0.00 | 0.00 | 0.00 | 74 | 1017.3 |
| 20260906201617 | 64 | 329 | 6.0 | 8.0 | 0.00 | 0.00 | 0.00 | 73 | 1017.3 |
| 20260906201116 | 64 | 14 | 5.0 | 8.0 | 0.00 | 0.00 | 0.00 | 74 | 1017.2 |
| 20260906200613 | 64 | 357 | 7.0 | 9.0 | 0.00 | 0.00 | 0.00 | 73 | 1017.2 |
| 20260906200108 | 65 | 12 | 5.0 | 7.0 | 0.00 | 0.00 | 0.00 | 72 | 1017.2 |
| 20260906195603 | 64 | 224 | 2.0 | 4.0 | 0.00 | 0.00 | 0.00 | 73 | 1017.2 |
| 20260906195100 | 65 | 75 | 1.0 | 2.0 | 0.00 | 0.00 | 0.00 | 71 | 1017.4 |
| 20260906194556 | 66 | 285 | 1.0 | 1.0 | 0.00 | 0.00 | 0.00 | 70 | 1017.3 |
| 20260906194051 | 64 | 357 | 9.0 | 10.0 | 0.00 | 0.00 | 0.00 | 72 | 1017.2 |
| 20260906193550 | 64 | 36 | 5.0 | 7.0 | 0.00 | 0.00 | 0.00 | 71 | 1017.0 |
| 20260906193046 | 64 | 341 | 11.0 | 13.0 | 0.00 | 0.00 | 0.00 | 70 | 1017.0 |
| 20260906192541 | 64 | 27 | 9.0 | 11.0 | 0.00 | 0.00 | 0.00 | 69 | 1017.1 |
| 20260906192040 | 63 | 258 | 7.0 | 9.0 | 0.00 | 0.00 | 0.00 | 70 | 1017.1 |
| 20260906191536 | 62 | 17 | 10.0 | 17.0 | 0.00 | 0.00 | 0.00 | 72 | 1017.3 |
| 20260906191034 | 63 | 309 | 8.0 | 10.0 | 0.00 | 0.00 | 0.00 | 70 | 1017.3 |
| 20260906190534 | 63 | 5 | 7.0 | 10.0 | 0.00 | 0.00 | 0.00 | 70 | 1017.6 |
| 20260906190029 | 63 | 40 | 8.0 | 10.0 | 0.00 | 0.00 | 0.00 | 70 | 1017.7 |
| 20260906185528 | 62 | 335 | 2.0 | 3.0 | 0.00 | 0.00 | 0.00 | 71 | 1017.2 |
| 20260906185027 | 62 | 137 | 1.0 | 2.0 | 0.00 | 0.00 | 0.00 | 72 | 1017.7 |
| 20260906184522 | 62 | 9 | 7.0 | 8.0 | 0.00 | 0.00 | 0.00 | 71 | 1017.7 |
| 20260906184018 | 62 | 35 | 6.0 | 9.0 | 0.00 | 0.00 | 0.00 | 71 | 1017.7 |
| 20260906183514 | 61 | 17 | 5.0 | 7.0 | 0.00 | 0.00 | 0.00 | 73 | 1017.2 |
| 20260906183009 | 61 | 96 | 5.0 | 8.0 | 0.00 | 0.00 | 0.00 | 74 | 1017.3 |
| 20260906182504 | 60 | 38 | 5.0 | 6.0 | 0.00 | 0.00 | 0.00 | 75 | 1017.6 |
| 20260906182000 | 60 | 63 | 11.0 | 15.0 | 0.00 | 0.00 | 0.00 | 76 | 1017.6 |
| 20260906181456 | 59 | 29 | 15.0 | 17.0 | 0.00 | 0.00 | 0.00 | 76 | 1018.0 |
| 20260906180951 | 58 | 339 | 9.0 | 13.0 | 0.00 | 0.00 | 0.00 | 80 | 1018.4 |
| 20260906180446 | 58 | 356 | 7.0 | 9.0 | 0.00 | 0.00 | 0.00 | 81 | 1018.7 |
| 20260906175945 | 58 | 327 | 12.0 | 14.0 | 0.00 | 0.00 | 0.00 | 82 | 1018.5 |
| 20260906175445 | 57 | 11 | 9.0 | 11.0 | 0.00 | 0.00 | 0.00 | 83 | 1018.7 |
| 20260906174944 | 57 | 350 | 11.0 | 14.0 | 0.00 | 0.00 | 0.00 | 84 | 1018.8 |
| 20260906174443 | 57 | 328 | 8.0 | 9.0 | 0.00 | 0.00 | 0.00 | 84 | 1019.1 |
| 20260906173938 | 57 | 33 | 10.0 | 11.0 | 0.00 | 0.00 | 0.00 | 85 | 1018.9 |
| 20260906173433 | 57 | 12 | 5.0 | 6.0 | 0.00 | 0.00 | 0.00 | 85 | 1019.3 |
| 20260906172933 | 57 | 318 | 12.0 | 15.0 | 0.00 | 0.00 | 0.00 | 85 | 1019.4 |
| 20260906172430 | 56 | 11 | 6.0 | 7.0 | 0.00 | 0.00 | 0.00 | 86 | 1019.2 |
| 20260906171924 | 56 | 353 | 12.0 | 15.0 | 0.00 | 0.00 | 0.00 | 86 | 1019.3 |
| 20260906171419 | 57 | 358 | 11.0 | 16.0 | 0.00 | 0.00 | 0.00 | 86 | 1019.4 |
| 20260906170915 | 57 | 3 | 13.0 | 14.0 | 0.00 | 0.00 | 0.00 | 85 | 1019.1 |
| 20260906170412 | 57 | 332 | 7.0 | 9.0 | 0.00 | 0.00 | 0.00 | 85 | 1019.3 |
| 20260906165908 | 58 | 4 | 10.0 | 11.0 | 0.00 | 0.00 | 0.00 | 85 | 1019.2 |
| 20260906165407 | 58 | 345 | 11.0 | 14.0 | 0.00 | 0.00 | 0.00 | 84 | 1019.2 |
| 20260906164902 | 58 | 23 | 5.0 | 6.0 | 0.00 | 0.00 | 0.00 | 86 | 1019.1 |
| 20260906164401 | 58 | 25 | 6.0 | 13.0 | 0.00 | 0.00 | 0.00 | 89 | 1019.2 |
| 20260906163857 | 57 | 10 | 3.0 | 4.0 | 0.00 | 0.00 | 0.00 | 90 | 1019.1 |
| 20260906163353 | 58 | 17 | 3.0 | 4.0 | 0.00 | 0.00 | 0.00 | 90 | 1019.3 |
| 20260906162850 | 58 | 3 | 6.0 | 8.0 | 0.00 | 0.00 | 0.00 | 89 | 1019.3 |
| 20260906162349 | 58 | 0 | 3.0 | 10.0 | 0.00 | 0.00 | 0.00 | 89 | 1019.2 |
| 20260906161844 | 58 | 12 | 6.0 | 7.0 | 0.00 | 0.00 | 0.00 | 90 | 1019.3 |
| 20260906161344 | 58 | 46 | 6.0 | 8.0 | 0.00 | 0.00 | 0.00 | 90 | 1019.3 |
| 20260906160842 | 58 | 0 | 3.0 | 4.0 | 0.00 | 0.00 | 0.00 | 90 | 1019.4 |
| 20260906160336 | 57 | 7 | 6.0 | 8.0 | 0.00 | 0.00 | 0.00 | 88 | 1019.5 |
| 20260906155835 | 57 | 328 | 4.0 | 6.0 | 0.00 | 0.00 | 0.00 | 88 | 1019.7 |
| 20260906155329 | 58 | 302 | 5.0 | 7.0 | 0.00 | 0.00 | 0.00 | 88 | 1019.9 |
| 20260906154825 | 58 | 44 | 4.0 | 6.0 | 0.00 | 0.00 | 0.00 | 89 | 1019.9 |
| 20260906154320 | 58 | 292 | 4.0 | 4.0 | 0.00 | 0.00 | 0.00 | 89 | 1019.9 |
| 20260906153819 | 58 | 305 | 1.0 | 2.0 | 0.00 | 0.00 | 0.00 | 89 | 1019.9 |
| 20260906153318 | 58 | 350 | 3.0 | 4.0 | 0.00 | 0.00 | 0.00 | 89 | 1019.8 |
| 20260906152813 | 58 | 37 | 1.0 | 2.0 | 0.00 | 0.00 | 0.00 | 89 | 1020.1 |
| 20260906152308 | 58 | 39 | 3.0 | 3.0 | 0.00 | 0.00 | 0.00 | 89 | 1019.7 |
| 20260906151807 | 58 | 22 | 1.0 | 1.0 | 0.00 | 0.00 | 0.00 | 89 | 1019.5 |
| 20260906151303 | 58 | 347 | 3.0 | 4.0 | 0.00 | 0.00 | 0.00 | 89 | 1019.8 |
| 20260906150758 | 58 | 23 | 3.0 | 3.0 | 0.00 | 0.00 | 0.00 | 89 | 1019.9 |
| 20260906150254 | 58 | 354 | 2.0 | 3.0 | 0.00 | 0.00 | 0.00 | 89 | 1020.0 |
| 20260906145753 | 58 | 2 | 2.0 | 2.0 | 0.00 | 0.00 | 0.00 | 89 | 1019.7 |
| 20260906145251 | 58 | 21 | 2.0 | 2.0 | 0.00 | 0.00 | 0.00 | 89 | 1019.8 |
| 20260906144747 | 58 | 7 | 3.0 | 4.0 | 0.00 | 0.00 | 0.00 | 89 | 1019.8 |
| 20260906144242 | 58 | 179 | 0.0 | 0.0 | 0.00 | 0.00 | 0.00 | 89 | 1019.7 |
| 20260906143741 | 58 | 87 | 0.0 | 0.0 | 0.00 | 0.00 | 0.00 | 89 | 1019.4 |
| 20260906143238 | 58 | 99 | 1.0 | 2.0 | 0.00 | 0.00 | 0.00 | 90 | 1019.5 |
| 20260906142738 | 58 | 30 | 3.0 | 6.0 | 0.00 | 0.00 | 0.00 | 90 | 1019.5 |
| 20260906142233 | 58 | 56 | 2.0 | 4.0 | 0.00 | 0.00 | 0.00 | 91 | 1020.0 |
| 20260906141732 | 58 | 358 | 1.0 | 1.0 | 0.00 | 0.00 | 0.00 | 92 | 1019.8 |
| 20260906141227 | 57 | 350 | 1.0 | 2.0 | 0.00 | 0.00 | 0.00 | 92 | 1020.1 |
| 20260906140727 | 57 | 25 | 1.0 | 1.0 | 0.00 | 0.00 | 0.00 | 93 | 1020.0 |
| 20260906140221 | 56 | 340 | 2.0 | 3.0 | 0.00 | 0.00 | 0.00 | 93 | 1019.9 |
| 20260906135718 | 56 | 11 | 3.0 | 4.0 | 0.00 | 0.00 | 0.00 | 94 | 1019.8 |
| 20260906135214 | 55 | 8 | 2.0 | 3.0 | 0.00 | 0.00 | 0.00 | 94 | 1019.5 |
| 20260906134709 | 55 | 50 | 2.0 | 3.0 | 0.00 | 0.00 | 0.00 | 95 | 1019.4 |
| 20260906134204 | 55 | 132 | 0.0 | 0.0 | 0.00 | 0.00 | 0.00 | 95 | 1019.7 |
| 20260906133700 | 55 | 13 | 2.0 | 3.0 | 0.00 | 0.00 | 0.00 | 96 | 1019.5 |
| 20260906133155 | 54 | 49 | 1.0 | 2.0 | 0.00 | 0.00 | 0.00 | 96 | 1019.7 |
| 20260906132651 | 54 | 30 | 2.0 | 4.0 | 0.00 | 0.00 | 0.00 | 96 | 1019.5 |
| 20260906132146 | 54 | 13 | 3.0 | 3.0 | 0.00 | 0.00 | 0.00 | 96 | 1019.5 |
| 20260906131642 | 54 | 25 | 2.0 | 3.0 | 0.00 | 0.00 | 0.00 | 96 | 1019.4 |
| 20260906131136 | 54 | 357 | 5.0 | 7.0 | 0.00 | 0.00 | 0.00 | 96 | 1019.8 |
| 20260906130632 | 54 | 359 | 3.0 | 3.0 | 0.00 | 0.00 | 0.00 | 96 | 1020.0 |
| 20260906130127 | 54 | 352 | 5.0 | 7.0 | 0.00 | 0.00 | 0.00 | 96 | 1020.1 |
| 20260906125625 | 54 | 39 | 3.0 | 3.0 | 0.00 | 0.00 | 0.00 | 96 | 1020.2 |
| 20260906125123 | 54 | 33 | 3.0 | 4.0 | 0.00 | 0.00 | 0.00 | 97 | 1019.9 |
| 20260906124619 | 54 | 8 | 4.0 | 6.0 | 0.00 | 0.00 | 0.00 | 97 | 1020.0 |
| 20260906124114 | 54 | 14 | 4.0 | 7.0 | 0.00 | 0.00 | 0.00 | 97 | 1019.7 |
| 20260906123614 | 54 | 324 | 4.0 | 6.0 | 0.00 | 0.00 | 0.00 | 96 | 1019.7 |
| 20260906123109 | 54 | 12 | 4.0 | 4.0 | 0.00 | 0.00 | 0.00 | 96 | 1019.9 |
| 20260906122608 | 54 | 21 | 4.0 | 4.0 | 0.00 | 0.00 | 0.00 | 96 | 1019.8 |
| 20260906122104 | 54 | 36 | 5.0 | 7.0 | 0.00 | 0.00 | 0.00 | 96 | 1019.7 |
| 20260906121600 | 54 | 36 | 6.0 | 7.0 | 0.00 | 0.00 | 0.00 | 96 | 1019.8 |
| 20260906121056 | 54 | 1 | 7.0 | 9.0 | 0.00 | 0.00 | 0.00 | 96 | 1019.9 |
| 20260906120551 | 54 | 42 | 7.0 | 10.0 | 0.00 | 0.00 | 0.00 | 96 | 1019.8 |
| 20260906120049 | 54 | 342 | 5.0 | 6.0 | 0.00 | 0.00 | 0.00 | 96 | 1019.8 |
| 20260906115549 | 54 | 5 | 6.0 | 7.0 | 0.00 | 0.00 | 0.00 | 96 | 1019.7 |
| 20260906115044 | 54 | 23 | 7.0 | 8.0 | 0.00 | 0.00 | 0.00 | 96 | 1019.7 |
| 20260906114543 | 54 | 2 | 7.0 | 9.0 | 0.00 | 0.00 | 0.00 | 96 | 1019.5 |
| 20260906114039 | 54 | 24 | 5.0 | 7.0 | 0.00 | 0.00 | 0.00 | 95 | 1019.5 |
| 20260906113537 | 54 | 8 | 6.0 | 7.0 | 0.00 | 0.00 | 0.00 | 95 | 1019.5 |
| 20260906113033 | 54 | 38 | 5.0 | 7.0 | 0.00 | 0.00 | 0.00 | 95 | 1019.5 |
| 20260906112528 | 55 | 33 | 6.0 | 9.0 | 0.00 | 0.00 | 0.00 | 95 | 1019.7 |
| 20260906112025 | 55 | 349 | 5.0 | 7.0 | 0.00 | 0.00 | 0.00 | 95 | 1020.0 |
| 20260906111524 | 55 | 22 | 6.0 | 8.0 | 0.00 | 0.00 | 0.00 | 95 | 1019.9 |
| 20260906111020 | 55 | 29 | 5.0 | 7.0 | 0.00 | 0.00 | 0.00 | 95 | 1019.9 |
| 20260906110514 | 55 | 357 | 7.0 | 10.0 | 0.00 | 0.00 | 0.00 | 95 | 1019.8 |
| 20260906110013 | 55 | 351 | 9.0 | 13.0 | 0.00 | 0.00 | 0.00 | 95 | 1020.0 |
| 20260906105509 | 55 | 1 | 5.0 | 7.0 | 0.00 | 0.00 | 0.00 | 95 | 1019.9 |
| 20260906105005 | 55 | 2 | 5.0 | 7.0 | 0.00 | 0.00 | 0.00 | 95 | 1019.8 |
| 20260906104503 | 55 | 0 | 6.0 | 8.0 | 0.00 | 0.00 | 0.00 | 95 | 1019.7 |
| 20260906104003 | 55 | 353 | 5.0 | 6.0 | 0.00 | 0.00 | 0.00 | 95 | 1019.8 |
| 20260906103501 | 55 | 344 | 7.0 | 9.0 | 0.00 | 0.00 | 0.00 | 95 | 1019.8 |
| 20260906102956 | 55 | 11 | 9.0 | 11.0 | 0.00 | 0.00 | 0.00 | 95 | 1019.9 |
| 20260906102451 | 54 | 10 | 8.0 | 11.0 | 0.00 | 0.00 | 0.00 | 95 | 1020.0 |
| 20260906101950 | 54 | 340 | 13.0 | 17.0 | 0.00 | 0.00 | 0.00 | 96 | 1020.3 |
| 20260906101446 | 54 | 20 | 9.0 | 13.0 | 0.00 | 0.00 | 0.00 | 96 | 1020.1 |
| 20260906100941 | 54 | 27 | 9.0 | 11.0 | 0.00 | 0.00 | 0.00 | 96 | 1020.3 |
| 20260906100436 | 54 | 13 | 6.0 | 7.0 | 0.00 | 0.00 | 0.00 | 96 | 1019.9 |
| 20260906095935 | 54 | 344 | 9.0 | 11.0 | 0.00 | 0.00 | 0.00 | 95 | 1019.8 |
| 20260906095431 | 54 | 355 | 6.0 | 11.0 | 0.00 | 0.00 | 0.00 | 95 | 1019.9 |
| 20260906094926 | 54 | 36 | 8.0 | 10.0 | 0.00 | 0.00 | 0.00 | 95 | 1019.5 |
| 20260906094420 | 54 | 341 | 9.0 | 11.0 | 0.00 | 0.00 | 0.00 | 95 | 1019.9 |
| 20260906093916 | 54 | 358 | 8.0 | 11.0 | 0.00 | 0.00 | 0.00 | 95 | 1019.7 |
| 20260906093413 | 54 | 1 | 9.0 | 10.0 | 0.00 | 0.00 | 0.00 | 95 | 1019.8 |
| 20260906092907 | 54 | 40 | 9.0 | 10.0 | 0.00 | 0.00 | 0.00 | 95 | 1020.1 |
| 20260906092406 | 54 | 15 | 9.0 | 11.0 | 0.00 | 0.00 | 0.00 | 95 | 1020.1 |
| 20260906091902 | 54 | 37 | 6.0 | 8.0 | 0.00 | 0.00 | 0.00 | 94 | 1020.1 |
| 20260906091357 | 54 | 18 | 7.0 | 9.0 | 0.00 | 0.00 | 0.00 | 94 | 1020.2 |
| 20260906090854 | 54 | 20 | 7.0 | 9.0 | 0.00 | 0.00 | 0.00 | 94 | 1020.3 |
| 20260906090353 | 54 | 5 | 10.0 | 11.0 | 0.00 | 0.00 | 0.00 | 94 | 1020.5 |
| 20260906085849 | 54 | 15 | 10.0 | 13.0 | 0.00 | 0.00 | 0.00 | 94 | 1020.3 |
| 20260906085347 | 54 | 342 | 10.0 | 14.0 | 0.00 | 0.00 | 0.00 | 93 | 1020.4 |
| 20260906084842 | 54 | 327 | 9.0 | 10.0 | 0.00 | 0.00 | 0.00 | 94 | 1020.5 |
| 20260906084342 | 54 | 7 | 12.0 | 14.0 | 0.00 | 0.00 | 0.00 | 93 | 1020.5 |
| 20260906083836 | 54 | 32 | 11.0 | 15.0 | 0.00 | 0.00 | 0.00 | 93 | 1020.4 |
| 20260906083333 | 54 | 343 | 10.0 | 13.0 | 0.00 | 0.00 | 0.00 | 93 | 1020.4 |
| 20260906082832 | 54 | 0 | 10.0 | 14.0 | 0.00 | 0.00 | 0.00 | 93 | 1020.5 |
| 20260906082327 | 54 | 342 | 8.0 | 10.0 | 0.00 | 0.00 | 0.00 | 93 | 1020.6 |
| 20260906081823 | 55 | 0 | 9.0 | 11.0 | 0.00 | 0.00 | 0.00 | 92 | 1020.4 |
| 20260906081319 | 55 | 27 | 9.0 | 10.0 | 0.00 | 0.00 | 0.00 | 92 | 1020.3 |
| 20260906080814 | 55 | 41 | 8.0 | 10.0 | 0.00 | 0.00 | 0.00 | 91 | 1020.5 |
| 20260906080311 | 55 | 19 | 9.0 | 10.0 | 0.00 | 0.00 | 0.00 | 91 | 1020.4 |
| 20260906075810 | 55 | 33 | 6.0 | 9.0 | 0.00 | 0.00 | 0.00 | 91 | 1020.4 |
| 20260906075309 | 55 | 12 | 9.0 | 13.0 | 0.00 | 0.00 | 0.00 | 91 | 1020.4 |
| 20260906074805 | 55 | 28 | 7.0 | 9.0 | 0.00 | 0.00 | 0.00 | 90 | 1020.6 |
| 20260906074305 | 55 | 28 | 9.0 | 13.0 | 0.00 | 0.00 | 0.00 | 90 | 1020.9 |
| 20260906073804 | 55 | 1 | 8.0 | 11.0 | 0.00 | 0.00 | 0.00 | 90 | 1021.0 |
| 20260906073259 | 55 | 2 | 5.0 | 7.0 | 0.00 | 0.00 | 0.00 | 89 | 1020.9 |
| 20260906072755 | 55 | 34 | 4.0 | 7.0 | 0.00 | 0.00 | 0.00 | 89 | 1021.1 |
| 20260906072251 | 55 | 28 | 7.0 | 9.0 | 0.00 | 0.00 | 0.00 | 88 | 1021.0 |
| 20260906071747 | 55 | 359 | 7.0 | 9.0 | 0.00 | 0.00 | 0.00 | 88 | 1021.0 |
| 20260906071247 | 56 | 34 | 6.0 | 11.0 | 0.00 | 0.00 | 0.00 | 88 | 1021.0 |
| 20260906070743 | 56 | 53 | 11.0 | 14.0 | 0.00 | 0.00 | 0.00 | 87 | 1021.2 |
| 20260906070238 | 56 | 21 | 9.0 | 11.0 | 0.00 | 0.00 | 0.00 | 87 | 1021.1 |
| 20260906065738 | 56 | 44 | 7.0 | 10.0 | 0.00 | 0.00 | 0.00 | 86 | 1021.2 |
| 20260906065233 | 56 | 27 | 7.0 | 11.0 | 0.00 | 0.00 | 0.00 | 86 | 1021.6 |
| 20260906064729 | 56 | 36 | 8.0 | 13.0 | 0.00 | 0.00 | 0.00 | 86 | 1021.4 |
| 20260906064224 | 56 | 32 | 11.0 | 14.0 | 0.00 | 0.00 | 0.00 | 86 | 1021.6 |
| 20260906063719 | 56 | 2 | 11.0 | 13.0 | 0.00 | 0.00 | 0.00 | 86 | 1021.6 |
| 20260906063215 | 56 | 0 | 11.0 | 14.0 | 0.00 | 0.00 | 0.00 | 86 | 1021.4 |
| 20260906062710 | 56 | 341 | 6.0 | 9.0 | 0.00 | 0.00 | 0.00 | 86 | 1021.4 |
| 20260906062209 | 56 | 38 | 8.0 | 14.0 | 0.00 | 0.00 | 0.00 | 86 | 1021.4 |
| 20260906061706 | 57 | 313 | 9.0 | 13.0 | 0.00 | 0.00 | 0.00 | 85 | 1021.3 |
| 20260906061201 | 57 | 21 | 7.0 | 10.0 | 0.00 | 0.00 | 0.00 | 84 | 1021.5 |
| 20260906060656 | 57 | 24 | 7.0 | 10.0 | 0.00 | 0.00 | 0.00 | 84 | 1021.4 |
| 20260906060154 | 57 | 23 | 5.0 | 7.0 | 0.00 | 0.00 | 0.00 | 84 | 1021.5 |
| 20260906055649 | 57 | 24 | 8.0 | 10.0 | 0.00 | 0.00 | 0.00 | 84 | 1021.4 |
| 20260906055144 | 57 | 11 | 8.0 | 9.0 | 0.00 | 0.00 | 0.00 | 85 | 1021.5 |
| 20260906054639 | 57 | 346 | 6.0 | 10.0 | 0.00 | 0.00 | 0.00 | 84 | 1021.3 |
| 20260906054134 | 57 | 336 | 8.0 | 10.0 | 0.00 | 0.00 | 0.00 | 84 | 1021.3 |
| 20260906053631 | 57 | 354 | 5.0 | 7.0 | 0.00 | 0.00 | 0.00 | 84 | 1021.3 |
| 20260906053125 | 57 | 348 | 10.0 | 14.0 | 0.00 | 0.00 | 0.00 | 84 | 1021.1 |
| 20260906052621 | 57 | 13 | 8.0 | 11.0 | 0.00 | 0.00 | 0.00 | 84 | 1021.3 |
| 20260906052118 | 57 | 330 | 9.0 | 11.0 | 0.00 | 0.00 | 0.00 | 84 | 1021.2 |
| 20260906051613 | 57 | 10 | 6.0 | 9.0 | 0.00 | 0.00 | 0.00 | 84 | 1021.3 |
| 20260906051108 | 57 | 341 | 14.0 | 18.0 | 0.00 | 0.00 | 0.00 | 83 | 1021.2 |
| 20260906050604 | 57 | 357 | 11.0 | 13.0 | 0.00 | 0.00 | 0.00 | 83 | 1021.4 |
| 20260906050059 | 57 | 7 | 8.0 | 9.0 | 0.00 | 0.00 | 0.00 | 82 | 1021.6 |
| 20260906045557 | 57 | 29 | 13.0 | 18.0 | 0.00 | 0.00 | 0.00 | 81 | 1021.9 |
| 20260906045053 | 57 | 1 | 9.0 | 13.0 | 0.00 | 0.00 | 0.00 | 81 | 1021.7 |
| 20260906044548 | 57 | 323 | 12.0 | 15.0 | 0.00 | 0.00 | 0.00 | 80 | 1021.2 |
| 20260906044043 | 57 | 334 | 9.0 | 13.0 | 0.00 | 0.00 | 0.00 | 80 | 1020.9 |
| 20260906043539 | 57 | 348 | 11.0 | 13.0 | 0.00 | 0.00 | 0.00 | 80 | 1020.6 |
| 20260906043035 | 57 | 40 | 10.0 | 13.0 | 0.00 | 0.00 | 0.00 | 80 | 1020.8 |
| 20260906042534 | 57 | 357 | 9.0 | 11.0 | 0.00 | 0.00 | 0.00 | 79 | 1020.8 |
| 20260906042029 | 58 | 8 | 9.0 | 11.0 | 0.00 | 0.00 | 0.00 | 78 | 1020.5 |
| 20260906041525 | 58 | 20 | 10.0 | 16.0 | 0.00 | 0.00 | 0.00 | 78 | 1020.5 |
| 20260906041025 | 58 | 36 | 10.0 | 14.0 | 0.00 | 0.00 | 0.00 | 77 | 1020.6 |
| 20260906040520 | 58 | 343 | 9.0 | 14.0 | 0.00 | 0.00 | 0.00 | 76 | 1020.6 |
| 20260906040015 | 59 | 356 | 9.0 | 14.0 | 0.00 | 0.00 | 0.00 | 74 | 1020.8 |
| 20260906035510 | 59 | 48 | 12.0 | 15.0 | 0.00 | 0.00 | 0.00 | 74 | 1020.9 |
| 20260906035007 | 59 | 311 | 5.0 | 6.0 | 0.00 | 0.00 | 0.00 | 73 | 1020.9 |
| 20260906034506 | 59 | 34 | 16.0 | 19.0 | 0.00 | 0.00 | 0.00 | 73 | 1020.8 |
| 20260906034001 | 59 | 344 | 12.0 | 15.0 | 0.00 | 0.00 | 0.00 | 73 | 1021.0 |
| 20260906033455 | 59 | 342 | 8.0 | 9.0 | 0.00 | 0.00 | 0.00 | 73 | 1021.2 |
| 20260906032951 | 59 | 7 | 11.0 | 14.0 | 0.00 | 0.00 | 0.00 | 73 | 1021.4 |
| 20260906032449 | 59 | 333 | 9.0 | 13.0 | 0.00 | 0.00 | 0.00 | 73 | 1021.1 |
| 20260906031948 | 59 | 22 | 11.0 | 15.0 | 0.00 | 0.00 | 0.00 | 73 | 1020.4 |
| 20260906031443 | 59 | 345 | 9.0 | 13.0 | 0.00 | 0.00 | 0.00 | 73 | 1020.2 |
| 20260906030939 | 59 | 7 | 11.0 | 13.0 | 0.00 | 0.00 | 0.00 | 73 | 1020.2 |
| 20260906030433 | 59 | 17 | 8.0 | 11.0 | 0.00 | 0.00 | 0.00 | 73 | 1020.2 |
| 20260906025928 | 59 | 344 | 9.0 | 11.0 | 0.00 | 0.00 | 0.00 | 72 | 1019.9 |
| 20260906025428 | 59 | 21 | 8.0 | 10.0 | 0.00 | 0.00 | 0.00 | 72 | 1019.9 |
| 20260906024927 | 59 | 35 | 12.0 | 21.0 | 0.00 | 0.00 | 0.00 | 71 | 1019.8 |
| 20260906024426 | 59 | 2 | 11.0 | 17.0 | 0.00 | 0.00 | 0.00 | 71 | 1019.8 |
| 20260906023921 | 59 | 357 | 9.0 | 15.0 | 0.00 | 0.00 | 0.00 | 71 | 1019.5 |
| 20260906023418 | 59 | 12 | 7.0 | 9.0 | 0.00 | 0.00 | 0.00 | 71 | 1019.8 |
| 20260906022918 | 60 | 357 | 12.0 | 17.0 | 0.00 | 0.00 | 0.00 | 70 | 1019.7 |
| 20260906022413 | 60 | 339 | 9.0 | 10.0 | 0.00 | 0.00 | 0.00 | 70 | 1019.8 |
| 20260906021908 | 60 | 353 | 8.0 | 13.0 | 0.00 | 0.00 | 0.00 | 70 | 1019.7 |
| 20260906021409 | 60 | 344 | 8.0 | 13.0 | 0.00 | 0.00 | 0.00 | 69 | 1019.5 |
| 20260906020903 | 60 | 350 | 12.0 | 16.0 | 0.00 | 0.00 | 0.00 | 69 | 1019.7 |
| 20260906020403 | 60 | 14 | 10.0 | 13.0 | 0.00 | 0.00 | 0.00 | 69 | 1019.5 |
| 20260906015857 | 61 | 1 | 11.0 | 13.0 | 0.00 | 0.00 | 0.00 | 68 | 1019.8 |
| 20260906015356 | 61 | 356 | 12.0 | 19.0 | 0.00 | 0.00 | 0.00 | 67 | 1019.7 |
| 20260906014856 | 61 | 6 | 10.0 | 13.0 | 0.00 | 0.00 | 0.00 | 67 | 1019.9 |
| 20260906014356 | 61 | 340 | 11.0 | 15.0 | 0.00 | 0.00 | 0.00 | 67 | 1019.5 |
| 20260906013853 | 62 | 12 | 8.0 | 11.0 | 0.00 | 0.00 | 0.00 | 66 | 1019.5 |
| 20260906013348 | 62 | 37 | 9.0 | 11.0 | 0.00 | 0.00 | 0.00 | 66 | 1019.7 |
| 20260906012843 | 62 | 356 | 10.0 | 14.0 | 0.00 | 0.00 | 0.00 | 66 | 1019.5 |
| 20260906012338 | 63 | 353 | 11.0 | 14.0 | 0.00 | 0.00 | 0.00 | 65 | 1019.5 |
| 20260906011838 | 63 | 15 | 6.0 | 8.0 | 0.00 | 0.00 | 0.00 | 64 | 1019.7 |
| 20260906011333 | 64 | 6 | 6.0 | 8.0 | 0.00 | 0.00 | 0.00 | 62 | 1019.7 |
| 20260906010829 | 64 | 348 | 10.0 | 15.0 | 0.00 | 0.00 | 0.00 | 61 | 1019.4 |
| 20260906010325 | 64 | 36 | 8.0 | 10.0 | 0.00 | 0.00 | 0.00 | 60 | 1019.5 |
| 20260906005820 | 65 | 348 | 10.0 | 13.0 | 0.00 | 0.00 | 0.00 | 60 | 1019.8 |
| 20260906005319 | 66 | 344 | 10.0 | 15.0 | 0.00 | 0.00 | 0.00 | 58 | 1019.7 |
| 20260906004818 | 67 | 331 | 12.0 | 14.0 | 0.00 | 0.00 | 0.00 | 58 | 1019.5 |
| 20260906004318 | 68 | 51 | 7.0 | 10.0 | 0.00 | 0.00 | 0.00 | 57 | 1019.7 |
| 20260906003814 | 67 | 356 | 5.0 | 8.0 | 0.00 | 0.00 | 0.00 | 57 | 1019.8 |
| 20260906003309 | 68 | 345 | 14.0 | 17.0 | 0.00 | 0.00 | 0.00 | 56 | 1019.7 |
| 20260906002805 | 68 | 352 | 10.0 | 13.0 | 0.00 | 0.00 | 0.00 | 55 | 1019.5 |
| 20260906002306 | 68 | 339 | 6.0 | 8.0 | 0.00 | 0.00 | 0.00 | 53 | 1019.4 |
| 20260906001800 | 69 | 339 | 10.0 | 14.0 | 0.00 | 0.00 | 0.00 | 53 | 1019.4 |
| 20260906001300 | 69 | 346 | 9.0 | 11.0 | 0.00 | 0.00 | 0.00 | 52 | 1019.3 |
| 20260906000756 | 70 | 353 | 9.0 | 13.0 | 0.00 | 0.00 | 0.00 | 51 | 1019.5 |
| 20260906000256 | 69 | 345 | 7.0 | 9.0 | 0.00 | 0.00 | 0.00 | 51 | 1019.8 |
| 20260905235750 | 69 | 10 | 11.0 | 15.0 | 0.00 | 0.00 | 0.00 | 52 | 1019.4 |
| 20260905235250 | 70 | 331 | 9.0 | 11.0 | 0.00 | 0.00 | 0.00 | 49 | 1019.9 |
| 20260905234746 | 72 | 10 | 7.0 | 9.0 | 0.00 | 0.00 | 0.00 | 46 | 1019.5 |
| 20260905234241 | 73 | 342 | 5.0 | 7.0 | 0.00 | 0.00 | 0.00 | 44 | 1019.8 |
| 20260905233736 | 73 | 346 | 4.0 | 7.0 | 0.00 | 0.00 | 0.00 | 43 | 1019.8 |
| 20260905233235 | 72 | 42 | 5.0 | 8.0 | 0.00 | 0.00 | 0.00 | 44 | 1020.0 |
| 20260905232730 | 74 | 21 | 1.0 | 4.0 | 0.00 | 0.00 | 0.00 | 43 | 1019.9 |
| 20260905232226 | 73 | 348 | 6.0 | 7.0 | 0.00 | 0.00 | 0.00 | 43 | 1019.8 |
| 20260905231721 | 73 | 3 | 7.0 | 10.0 | 0.00 | 0.00 | 0.00 | 44 | 1019.8 |
| 20260905231217 | 73 | 29 | 3.0 | 6.0 | 0.00 | 0.00 | 0.00 | 43 | 1019.9 |
| 20260905230713 | 73 | 308 | 6.0 | 8.0 | 0.00 | 0.00 | 0.00 | 43 | 1019.7 |
| 20260905230211 | 74 | 21 | 4.0 | 6.0 | 0.00 | 0.00 | 0.00 | 39 | 1019.4 |
| 20260905225710 | 74 | 55 | 5.0 | 8.0 | 0.00 | 0.00 | 0.00 | 40 | 1019.7 |
| 20260905225206 | 75 | 44 | 1.0 | 1.0 | 0.00 | 0.00 | 0.00 | 39 | 1019.8 |